Location: Herm
(49.4830°N, 2.4500°W)
Time: 16:33:51
(UTC+00:00)

NOAA 15 - Pass Details

Date: 01 November 2021
Orbit: 797 x 813 km, 98.7° (Epoch: 04 December)

Event Time Altitude Azimuth Distance (km) Brightness Sun altitude
Rises 19:42:05 0° 190° (S) 3,320 7.8 -28.7°
Reaches altitude 10° 19:44:36 10° 199° (SSW) 2,395 7.1 -29.1°
Maximum altitude 19:49:25 34° 264° (W) 1,307 6.1 -29.8°
Drops below altitude 10° 19:54:16 10° 329° (NNW) 2,413 7.6 -30.6°
Sets 19:56:50 0° 339° (NNW) 3,349 8.3 -31.0°
